Regional Weather Roundup
Issued by NWS

Home | Current Version | Previous Version | Text Only | Print | Product List | Glossary On
Versions: 1 2 3 4 5 6 7 8 9 10 11 12 13 14 15 16 17 18 19 20 21 22 23 24 25 26 27 28 29 30 31 32 33 34 35 36 37 38 39 40 41 42 43 44 45 46 47 48 49 50
000
ASUS43 KLMK 190310
RWRKY
NATIONAL WEATHER SERVICE LOUISVILLE KY
1000 PM EST SAT NOV 18 2017

NOTE "FAIR" INDICATES FEW OR NO CLOUDS BELOW 12,000 FEET
WITH NO SIGNIFICANT WEATHER AND/OR OBSTRUCTIONS TO VISIBILITY.

KYZ001>023-026-027-061>063-070>075-190400-
WESTERN AND SOUTH CENTRAL KENTUCKY

CITY           SKY/WX    TMP DP  RH WIND       PRES   REMARKS
PADUCAH        CLOUDY    45  35  68 NW13G24   29.95R
HENDERSON      CLOUDY    44  39  82 NW15      29.88R
OWENSBORO      CLOUDY    43  39  87 NW16      29.87R
HOPKINSVILLE   CLOUDY    43  37  80 NW16G24   29.91R
BOWLING GREEN  CLOUDY    42  38  85 NW15G25   29.86R
GLASGOW        CLOUDY    40  40  97 NW14G23   29.83R WCI  33
$$

KYZ024-025-028>034-038-045-046-053-190400-
NORTH CENTRAL KENTUCKY

CITY           SKY/WX    TMP DP  RH WIND       PRES   REMARKS
LOUISVILLE/SDF LGT RAIN  42  37  82 NW21G35   29.75R
LOUISVILLE/LOU LGT RAIN  41  38  89 NW15G31   29.74R
FORT KNOX      CLOUDY    39  36  87 W12       29.77R WCI  32
$$

KYZ035>037-039>044-047>052-055>060-089>105-190400-
NORTHEAST KENTUCKY

CITY           SKY/WX    TMP DP  RH WIND       PRES   REMARKS
LEXINGTON      LGT RAIN  44  40  85 NW21G35   29.65R
COVINGTON      LGT RAIN  42  40  92 NW23G37   29.59R
FRANKFORT      LGT RAIN  43  38  82 NW18G30   29.66R
$$

KYZ054-064>069-076>088-106>120-190400-
SOUTHEAST KENTUCKY

CITY           SKY/WX    TMP DP  RH WIND       PRES   REMARKS
JACKSON        LGT RAIN  50  48  93 W14G41    29.53R FOG
LONDON         CLOUDY    48  44  86 W24G38    29.62R
SOMERSET       LGT RAIN  43  43 100 W21G30    29.72R
MIDDLESBORO    CLOUDY    56  51  84 NW21G32   29.57R
MONTICELLO     CLOUDY    44  40  85 W22G31    29.74R
$$




USA.gov is the U.S. government's official web portal to all federal, state and local government web resources and services.